This demonstration page uses our WeatherBlox Daily Observations layout. Learn more.

Left ArrowRight Arrow

41.86663, -103.66717

Hourly Observations for April 24, 2017

Temp ( °F °C ) Dew Point ( °F °C ) Humidity (%) Winds ( mph kmh ) Pressure ( in mb ) Visibility ( mi km ) Precip ( " mm )
12:53 am 00:53 Clear 49 9.4 37 2.8 64 64 ENE 6 9 29.49 999 10 16.0934 N/A
1:53 am 01:53 Clear 46 7.8 37 2.8 71 71 NNW 5 7 29.5 999 10 16.0934 N/A
2:53 am 02:53 Clear 46 7.8 37 2.8 71 71 NW 7 11 29.52 1000 10 16.0934 N/A
3:53 am 03:53 Clear 48 8.9 38 3.3 68 68 W 8 13 29.51 999 10 16.0934 N/A
4:53 am 04:53 Clear 52 11.1 39 3.9 61 61 WNW 7 11 29.5 999 10 16.0934 N/A
5:53 am 05:53 Clear 52 11.1 39 3.9 61 61 W 10 17 29.5 999 10 16.0934 N/A
6:53 am 06:53 Sunny 52 11.1 39 3.9 61 61 WNW 12 19 29.55 1001 10 16.0934 N/A
7:53 am 07:53 Sunny 55 12.8 40 4.4 57 57 NW 16 26 29.57 1002 10 16.0934 N/A
8:53 am 08:53 Sunny 57 13.9 41 5 55 55 NW 16 26 29.58 1002 10 16.0934 N/A
9:53 am 09:53 Sunny 58 14.4 38 3.3 48 48 WNW 17 28 29.58 1002 10 16.0934 N/A
10:53 am 10:53 Mostly Sunny 62 16.7 36 2.2 38 38 NW 16 26 29.56 1001 10 16.0934 N/A
11:53 am 11:53 Sunny 66 18.9 33 0.6 29 29 WNW 15 24 29.54 1000 10 16.0934 N/A
12:53 pm 12:53 Partly Cloudy 66 18.9 34 1.1 30 30 W 14 22 29.53 1000 10 16.0934 N/A
1:53 pm 13:53 Sunny 65 18.3 31 -0.6 28 28 WNW 6 9 29.53 1000 10 16.0934 N/A
2:53 pm 14:53 Sunny 68 20 30 -1.1 24 24 VRB 5 7 29.49 999 10 16.0934 N/A
3:53 pm 15:53 Sunny 68 20 29 -1.7 23 23 N 8 13 29.46 998 10 16.0934 N/A
4:53 pm 16:53 Mostly Cloudy 66 18.9 29 -1.7 25 25 VRB 6 9 29.47 998 10 16.0934 N/A
5:53 pm 17:53 Cloudy with Light Rain 62 16.7 33 0.6 34 34 WNW 13 20 29.49 999 10 16.0934 N/A
6:53 pm 18:53 Cloudy with Light Rain 57 13.9 37 2.8 47 47 N 13 20 29.51 999 10 16.0934 N/A
7:53 pm 19:53 Cloudy with Light Rain 55 12.8 41 5 59 59 N 3 6 29.5 999 10 16.0934 N/A
8:53 pm 20:53 Cloudy with Light Rain 52 11.1 45 7.2 77 77 N N/A 29.53 1000 10 16.0934 0.01 0.254
9:53 pm 21:53 Cloudy with Light Rain 51 10.6 46 7.8 83 83 SE 5 7 29.51 999 8 12.87472 0.03 0.762
10:53 pm 22:53 Cloudy 50 10 45 7.2 83 83 ESE 7 11 29.49 999 10 16.0934 N/A
11:53 pm 23:53 Cloudy 49 9.4 44 6.7 83 83 W 25 41 29.49 999 10 16.0934 0.01 0.254
11:58 pm 23:58 Cloudy with Heavy Rain 46 8 43 6 87 87 W 24 39 29.56 1001 2.5 4.02335 N/A

Powered by AerisWeather